[TLELIST] Archives

 

[list_settings.list_name] Current TLEs

March 22nd 2009 PST

HST 1 20580U 90037B 09078.85731687 +.00000361 +00000-0 +15041-4 0 03521 2 20580 028.4691 325.1318 0003776 065.8611 294.2362 15.00464850836424 ISS (ZARYA) 1 25544U 98067A 09079.47575082 -.00004738 00000-0 -31451-4 0 4990 2 25544 051.6404 041.4657 0009888 143.2799 315.6446 15.71464828591995 CXO 1 25867U 99040B 09079.20833333 +.00000141 +00000-0 +10000-3 0 03051 2 25867 065.0466 072.1958 7358976 276.4295 355.5861 00.37806953004670 ____________________________________________________________________ These 2-Line ...Continue Reading

[list_settings.list_name] Current TLEs

March 21st 2009 PST

HST 1 20580U 90037B 09078.79080150 .00000375 00000-0 16192-4 0 3518 2 20580 028.4693 325.5652 0003794 065.3324 294.7653 15.00464984836412 ISS (ZARYA) 1 25544U 98067A 09077.82043242 -.00000485 +00000-0 +10370-5 0 04885 2 25544 051.6415 049.9373 0009630 134.8683 313.1253 15.71465406591732 CXO 1 25867U 99040B 09079.20833333 +.00000141 +00000-0 +10000-3 0 03051 2 25867 065.0466 072.1958 7358976 276.4295 355.5861 00.37806953004670 ____________________________________________________________________ These 2-Line ...Continue Reading

[list_settings.list_name] Current TLEs

March 20th 2009 PST

HST 1 20580U 90037B 09076.86185824 +.00000343 +00000-0 +13695-4 0 03507 2 20580 028.4707 338.1483 0003486 052.5675 307.5229 15.00464234836123 ISS (ZARYA) 1 25544U 98067A 09078.21950231 -.00004401 00000-0 -28883-4 0 4918 2 25544 051.6425 047.8919 0009888 138.4705 048.6849 15.71458684591793 CXO 1 25867U 99040B 09076.58333333 +.00000022 +00000-0 +10000-3 0 03041 2 25867 065.0368 072.2750 7353801 276.4357 358.2401 00.37806930004667 ____________________________________________________________________ These 2-Line ...Continue Reading

[list_settings.list_name] Current TLEs

March 19th 2009 PST

HST 1 20580U 90037B 09077.12791920 .00000355 00000-0 14605-4 0 3502 2 20580 028.4707 336.4133 0003473 054.4100 305.6813 15.00464427836162 ISS (ZARYA) 1 25544U 98067A 09077.18962941 .00010233 00000-0 82572-4 0 4827 2 25544 051.6402 053.1564 0009450 135.0134 342.0242 15.71529672591635 CXO 1 25867U 99040B 09076.58333333 +.00000022 +00000-0 +10000-3 0 03041 2 25867 065.0368 072.2750 7353801 276.4357 358.2401 00.37806930004667 ____________________________________________________________________ These 2-Line ...Continue Reading

[list_settings.list_name] Current TLEs

March 18th 2009 PST

HST 1 20580U 90037B 09076.06367420 .00000347 00000-0 14000-4 0 3496 2 20580 028.4707 343.3532 0003493 044.1134 315.9732 15.00463971836007 ISS (ZARYA) 1 25544U 98067A 09075.47729483 .00010811 00000-0 87093-4 0 4712 2 25544 051.6399 061.9180 0009436 128.4321 014.6599 15.71494551591363 CXO 1 25867U 99040B 09071.29166667 +.00000067 +00000-0 +10000-3 0 03036 2 25867 065.0100 072.4001 7340142 276.5014 357.7930 00.37806584004641 ____________________________________________________________________ These 2-Line ...Continue Reading

[list_settings.list_name] Current TLEs

March 17th 2009 PST

HST 1 20580U 90037B 09074.86639825 .00000320 00000-0 11884-4 0 3480 2 20580 028.4709 351.1611 0003467 031.6665 328.4137 15.00463353835826 ISS (ZARYA) 1 25544U 98067A 09075.15161696 .00010494 00000-0 84702-4 0 4680 2 25544 051.6397 063.5832 0009532 127.3042 332.0675 15.71485943591310 CXO 1 25867U 99040B 09071.29166667 +.00000067 +00000-0 +10000-3 0 03036 2 25867 065.0100 072.4001 7340142 276.5014 357.7930 00.37806584004641 ____________________________________________________________________ These 2-Line ...Continue Reading

[list_settings.list_name] Current TLEs

March 16th 2009 PST

HST 1 20580U 90037B 09073.13699755 .00000318 00000-0 11729-4 0 3471 2 20580 028.4709 002.4384 0003471 013.3659 346.7015 15.00462805835564 ISS (ZARYA) 1 25544U 98067A 09073.50579640 .00008892 00000-0 72637-4 0 4570 2 25544 051.6396 072.0046 0009551 121.3983 020.8224 15.71444207591051 CXO 1 25867U 99040B 09071.29166667 +.00000067 +00000-0 +10000-3 0 03036 2 25867 065.0100 072.4001 7340142 276.5014 357.7930 00.37806584004641 ____________________________________________________________________ These 2-Line ...Continue Reading

[list_settings.list_name] Current TLEs

March 15th 2009 PST

HST 1 20580U 90037B 09071.93972014 +.00000299 +00000-0 +10224-4 0 03476 2 20580 028.4710 010.2459 0003457 000.6795 359.3796 15.00462318835385 ISS (ZARYA) 1 25544U 98067A 09072.48742080 .00008454 00000-0 69351-4 0 4502 2 25544 051.6394 077.2140 0009583 118.0792 019.1424 15.71423025590896 CXO 1 25867U 99040B 09071.29166667 +.00000067 +00000-0 +10000-3 0 03036 2 25867 065.0100 072.4001 7340142 276.5014 357.7930 00.37806584004641 ____________________________________________________________________ These 2-Line ...Continue Reading

[list_settings.list_name] Current TLEs

March 14th 2009 PST

HST 1 20580U 90037B 09070.94198851 +.00000291 +00000-0 +96365-5 0 03489 2 20580 028.4710 016.7521 0003453 350.1026 009.9493 15.00461980835232 ISS (ZARYA) 1 25544U 98067A 09072.16033821 .00008237 00000-0 67712-4 0 4488 2 25544 051.6394 078.8875 0009598 117.3060 328.3260 15.71416245590848 CXO 1 25867U 99040B 09071.29166667 +.00000067 +00000-0 +10000-3 0 03036 2 25867 065.0100 072.4001 7340142 276.5014 357.7930 00.37806584004641 ____________________________________________________________________ These 2-Line ...Continue Reading

[list_settings.list_name] Current TLEs

March 13th 2009 PST

HST 1 20580U 90037B 09071.20805028 .00000300 00000-0 10377-4 0 3467 2 20580 028.4709 015.0171 0003460 352.9420 007.1125 15.00462137835270 ISS (ZARYA) 1 25544U 98067A 09070.38837942 .00007697 00000-0 63677-4 0 4357 2 25544 051.6394 087.9530 0009582 111.8389 022.9968 15.71382598590567 CXO 1 25867U 99040B 09066.00000000 +.00000054 +00000-0 +10000-3 0 03022 2 25867 064.9900 072.6194 7327426 276.5388 357.2991 00.37800396004621 ____________________________________________________________________ These 2-Line ...Continue Reading
  • This mailing list is a public mailing list - anyone may join or leave, at any time.
  • This mailing list is announce-only.

International Space Station (ISS) / Hubble Space Telescope (HST) / Chandra X-Ray Observatory Orbital Data via EMAIL

Privacy Policy:

Private list